FENGYUN 2H

Last updated on Tue Sep 16 2025 00:02:22 GMT+0000 (Coordinated Universal Time)

1 43491U 18050A 25258.60026269 -.00000144 00000+0 00000+0 0 9996 2 43491 2.3193 82.3313 0002976 136.4678 71.3292 1.00269120 26687
UTC large
Height (km)
Speed (km/s)
/
Latitude / Longitude
Inclination (degrees)
Orbital Period (minutes)
Azimuth
Elevation
Range (km)
Doppler Factor

Next 0 passes for location: London (51.5072 / 0.1276)

Sorry there are no passes over London.